CAPE
0 0 3 2 1 1 3 0 0 0 0 0 0 4 18 16 9 40 79 103 119 100 61 57 27 0 0 0 0 0 0 0
0 0 1 1 0 0 0 0 0 0 0 0 1 0 0 0 20 20 55 80 48 64 80 36 9 0 0 0 0 0 0 0
1 0 1 5 0 0 0 0 0 0 0 0 0 0 0 0 0 0 20 14 24 18 53 45 10 0 0 0 0 0 0 0
0 0 0 4 3 1 0 0 0 0 0 0 0 0 0 4 2 6 6 1 0 0 2 0 0 0 0 0 0 0 0 0
0 0 0 0 1 0 0 0 0 0 0 0 0 0 0 0 0 0 6 0 0 0 0 0 0 0 0 0 0 0 0 0
0 0 0 0 0 0 0 0 0 0 0 0 0 0 0 0 0 0 0 0 0 0 0 0 0 0 0 0 0 0 0 0
0 0 0 0 0 0 0 0 0 0 0 0 0 0 0 0 0 0 0 0 0 0 3 4 0 0 0 0 0 0 0 0
0 0 0 0 0 0 0 0 0 0 0 0 0 0 0 0 0 0 0 0 0 0 5 8 5 3 0 0 0 0 0 0
0 0 0 0 0 0 0 0 0 0 0 0 0 0 0 0 0 0 0 0 0 0 0 0 2 0 0 0 0 0 0 0
0 0 0 0 0 0 0 0 0 0 0 0 0 0 0 0 0 0 0 0 0 0 0 0 0 0 0 0 0 0 0 0
0 0 0 0 0 0 0 0 0 0 0 0 0 0 0 0 0 0 0 0 0 0 0 0 0 0 0 0 0 0 0 0
1 17 0 0 0 0 0 0 0 0 0 0 0 0 0 0 0 0 0 0 0 0 0 0 0 0 0 0 0 0 0 0
0 3 29 0 0 0 0 0 0 0 0 0 0 0 0 0 0 0 0 0 0 0 0 0 0 0 0 0 0 0 0 0
0 0 0 9 1 0 0 0 0 0 0 0 0 0 0 0 0 3 5 8 0 0 0 0 0 0 0 0 0 0 0 0
0 0 0 18 17 19 10 0 0 0 0 0 0 0 0 0 3 13 10 56 2 0 0 0 0 0 0 0 0 0 0 0
0 0 0 0 0 12 27 37 20 1 0 0 0 0 0 3 14 45 22 0 0 0 0 0 0 0 0 0 0 0 0 0
0 0 0 0 0 0 0 0 37 50 34 31 32 0 0 6 39 0 0 0 0 0 0 0 1 0 0 0 0 0 0 0
0 0 0 0 14 7 0 0 0 60 83 6 0 0 5 0 0 0 0 0 1 0 0 0 0 0 0 0 0 0 0 0
0 0 0 0 48 46 0 0 2 1 0 0 0 0 0 1 1 0 0 1 0 0 1 0 0 0 0 0 0 0 0 0
CIN
-0 -0 -0 -0 -0 -0 -0 -0 -0 -0 -0 -0 -0 -148 -185 -187 -185 -118 -161 -147 -173 -185 -226 -282 -287 -0 -0 -0 -0 -0 -0 -0
-0 -0 -0 -0 -0 -0 -0 -0 -0 -0 -0 -0 -91 -0 -1 -0 -154 -106 -135 -153 -199 -198 -203 -279 -318 -0 -0 -0 -0 -0 -0 -0
-0 -0 -0 -0 -0 -0 -0 -0 -0 -0 -0 -0 -0 -0 -0 -15 -0 -0 -180 -162 -198 -209 -205 -230 -227 -0 -0 -0 -0 -0 -0 -0
-0 -0 -0 -0 -0 -0 -0 -0 -0 -0 -0 -0 -0 -0 -0 -150 -86 -119 -187 -119 -0 -0 -86 -0 -0 -0 -0 -0 -0 -0 -0 -0
-0 -0 -0 -0 -0 -0 -0 -0 -0 -0 -0 -0 -0 -0 -0 -0 -0 -2 -181 -0 -0 -0 -0 -0 -0 -0 -0 -0 -0 -0 -0 -0
-0 -0 -0 -0 -0 -0 -0 -0 -0 -0 -0 -0 -0 -0 -0 -0 -0 -0 -0 -0 -0 -0 -0 -0 -0 -0 -0 -0 -0 -0 -0 -0
-0 -0 -0 -0 -0 -0 -0 -0 -0 -0 -0 -0 -0 -0 -0 -0 -0 -0 -0 -0 -0 -0 -288 -280 -0 -0 -0 -0 -0 -0 -0 -0
-0 -0 -0 -0 -0 -0 -0 -0 -0 -0 -0 -0 -0 -0 -0 -0 -0 -0 -0 -0 -0 -0 -269 -253 -220 -142 -0 -0 -0 -0 -0 -0
-0 -0 -0 -0 -0 -0 -0 -0 -0 -0 -0 -0 -0 -0 -0 -0 -0 -0 -0 -0 -0 -0 -0 -13 -22 -0 -0 -0 -0 -0 -0 -0
-0 -0 -0 -0 -0 -0 -0 -0 -0 -0 -0 -0 -0 -0 -0 -0 -0 -0 -0 -0 -0 -0 -0 -0 -0 -0 -0 -0 -0 -0 -0 -0
-0 -0 -0 -0 -0 -0 -0 -0 -0 -0 -0 -0 -0 -0 -0 -0 -0 -0 -99 -0 -0 -0 -0 -0 -0 -0 -0 -0 -0 -0 -0 -0
-82 -641 -31 -0 -0 -0 -0 -0 -0 -0 -0 -0 -0 -0 -0 -0 -0 -0 -0 -0 -0 -0 -0 -0 -0 -0 -0 -0 -0 -0 -0 -0
-0 -453 -621 -0 -0 -0 -0 -0 -0 -0 -0 -0 -0 -0 -0 -0 -0 -0 -0 -0 -0 -0 -0 -0 -0 -0 -0 -0 -0 -0 -0 -0
-0 -0 -0 -606 -131 -0 -0 -0 -0 -0 -0 -0 -0 -0 -0 -0 -0 -209 -121 -167 -54 -0 -0 -0 -0 -0 -0 -0 -0 -0 -0 -0
-0 -0 -0 -524 -533 -537 -266 -0 -0 -0 -0 -0 -0 -0 -0 -65 -138 -231 -163 -147 -74 -0 -0 -0 -0 -0 -0 -0 -0 -0 -0 -0
-0 -0 -0 -0 -0 -407 -478 -491 -451 -77 -0 -0 -0 -0 -10 -168 -189 -237 -207 -0 -0 -0 -0 -0 -0 -0 -0 -0 -0 -0 -0 -0
-0 -0 -0 -0 -0 -0 -0 -0 -514 -478 -412 -403 -349 -0 -0 -317 -253 -0 -0 -0 -0 -0 -0 -0 -0 -0 -0 -0 -0 -0 -0 -0
-0 -0 -0 -0 -496 -615 -0 -0 -0 -521 -403 -306 -0 -0 -241 -0 -0 -0 -0 -0 -0 -0 -0 -0 -0 -0 -0 -0 -0 -0 -0 -0
-0 -0 -0 -0 -654 -716 -1 -0 -164 -204 -0 -0 -0 -0 -0 -0 -0 -0 -0 -0 -0 -0 -0 -0 -0 -0 -0 -0 -0 -0 -0 -0
Wind_Speed
7 10 7 8 8 8 8 5 7 4 6 4 3 4 3 2 3 4 4 4 7 6 5 5 5 4 3 3 3 2 3 4
5 8 7 7 7 9 11 10 7 4 8 5 2 4 2 3 3 6 6 5 5 6 4 5 5 6 7 7 3 5 3 3
8 11 9 9 9 9 10 11 11 9 8 7 2 2 1 3 2 4 6 7 6 6 5 4 5 4 4 5 4 3 3 4
12 14 12 10 11 11 10 11 12 11 10 4 1 2 2 1 2 4 4 5 5 5 6 6 6 5 6 6 6 7 4 3
8 12 12 11 10 9 9 9 10 7 7 6 7 6 8 3 3 2 4 5 6 6 7 7 7 5 6 7 7 5 5 5
12 13 13 11 9 8 9 9 10 10 8 7 6 5 4 3 3 5 5 4 6 6 7 7 7 7 7 7 4 5 4 4
11 10 10 11 9 9 10 12 13 13 12 11 11 11 8 5 6 5 5 4 4 7 7 8 7 8 7 5 5 7 6 4
13 14 14 13 14 13 12 14 15 15 16 16 15 14 13 13 11 7 6 4 3 7 7 6 7 9 8 8 9 8 8 9
16 17 16 17 17 17 17 17 17 17 18 18 17 17 11 12 11 8 6 6 6 6 7 7 10 7 7 7 6 6 7 7
19 18 18 16 17 20 20 18 18 18 18 14 14 13 15 13 13 9 7 6 5 6 9 10 9 8 6 6 5 6 6 6
16 17 17 17 19 17 16 17 18 15 14 15 14 16 16 16 13 12 10 7 7 6 6 6 6 6 7 8 5 5 7 5
17 18 18 18 15 16 15 17 17 16 17 17 19 18 20 16 13 12 9 8 11 10 9 9 8 6 6 6 6 7 8 8
18 18 17 16 19 17 20 18 19 20 19 20 21 17 16 15 15 14 12 14 11 13 14 10 9 8 7 8 8 9 10 10
11 12 15 17 19 19 20 20 23 23 20 19 18 18 16 17 15 14 14 15 13 10 9 9 9 9 10 10 10 10 10 10
11 9 14 16 18 20 20 22 22 22 21 21 20 18 17 16 15 15 16 13 12 11 10 8 8 9 9 10 8 8 8 9
9 12 13 13 14 17 18 19 18 19 20 21 21 17 15 14 15 15 11 11 11 10 9 8 8 8 8 10 10 10 10 9
12 12 11 13 16 17 16 17 16 15 18 20 16 14 13 13 13 10 10 9 9 9 9 10 10 7 12 13 12 10 9 9
11 14 15 15 15 12 14 13 8 12 14 12 12 12 12 10 8 9 10 10 9 8 9 9 8 6 13 13 11 7 7 6
10 9 13 11 5 6 6 7 8 9 8 9 9 10 9 9 9 9 8 7 9 9 8 8 7 5 11 12 11 7 7 7
Wind_Direction
142 148 157 144 139 140 126 114 90 64 96 69 48 70 106 156 78 77 162 157 157 175 176 151 152 156 199 186 158 177 173 177
149 143 159 152 156 155 154 145 140 136 156 156 174 195 129 88 130 210 185 180 170 163 162 150 163 176 193 190 147 172 192 148
162 167 178 171 165 167 163 164 160 172 179 196 160 159 135 111 165 225 214 198 185 172 162 168 175 159 158 173 161 158 186 177
177 176 185 167 175 176 177 170 173 179 174 181 87 62 35 107 160 232 222 218 207 178 186 179 181 179 190 188 184 182 187 211
178 182 186 186 178 175 177 179 175 175 169 187 194 199 211 200 194 228 246 209 226 194 201 186 183 197 199 206 198 182 151 179
185 189 181 190 175 175 186 187 188 182 179 191 196 211 224 234 204 238 256 259 226 212 203 193 192 196 215 206 195 190 171 163
189 181 182 181 181 184 191 192 199 193 186 193 200 211 219 227 230 232 237 229 225 224 209 203 198 201 181 192 189 175 182 210
189 181 185 184 189 192 197 202 207 199 198 197 204 210 213 224 225 222 227 235 229 236 216 203 206 208 207 186 191 198 188 196
197 195 192 189 192 196 198 203 211 209 205 206 205 212 216 222 228 227 228 228 228 211 207 207 211 183 180 176 183 189 190 197
203 195 197 192 195 202 201 205 212 214 215 214 219 220 223 220 225 227 237 226 237 218 218 217 203 194 189 178 183 189 183 170
204 203 196 198 200 201 200 206 212 211 209 213 215 217 223 227 227 223 222 224 212 212 223 220 213 197 181 179 163 162 157 155
199 205 203 199 199 199 199 205 206 209 210 209 218 220 216 217 222 224 203 191 202 205 219 203 199 180 176 163 159 162 160 151
200 203 198 192 199 198 200 203 204 211 217 214 217 226 227 225 221 208 178 203 211 205 223 200 190 170 184 190 177 174 166 169
204 196 194 196 198 200 203 203 208 211 211 218 224 225 221 219 213 206 215 214 209 200 200 188 179 179 175 189 186 176 174 164
202 195 197 199 201 202 205 210 210 209 208 211 217 219 219 213 209 209 216 220 200 189 189 182 175 180 181 182 169 158 159 158
203 202 205 199 200 205 209 214 210 205 207 211 216 212 207 209 211 209 206 191 187 179 161 154 161 162 169 165 162 162 155 154
208 207 200 199 201 204 204 209 207 195 200 207 203 192 189 199 207 185 172 167 162 157 156 156 164 172 165 160 159 158 158 163
206 200 205 205 204 196 199 201 175 188 193 188 183 179 183 187 163 154 162 166 155 151 149 147 155 150 155 155 136 138 138 146
230 194 200 211 175 146 123 136 158 174 180 176 173 171 162 161 154 148 135 145 143 142 144 135 136 134 147 133 115 111 97 86